{"data":{"norad_id":43056,"intl_designator":"2017-079B","name":"GSAT0216 (GALILEO 20)","alt_names":[],"object_type":"PAYLOAD","status":"ACTIVE","operator":null,"country":"ESA","launch_date":"2017-12-12","launch_site_code":"FRGUI","launch_vehicle":null,"mission":null,"orbit_class":"UNKNOWN","rcs_meters":null,"size_class":null,"mass_kg":null,"dimensions":null,"purposes":["earth_obs","nav"],"wikipedia_slug":null,"has_3d_model":false,"image_url":null,"decayed_at":null,"tle_current":{"epoch":"2026-09-18T13:45:14.701248Z","epoch_age_seconds":180981,"freshness":"STALE","line1":"1 43056U 17079B   26261.57308682  .00000017  00000+0  00000+0 0  9994","line2":"2 43056  55.0524 218.9383 0004508 291.1911  68.7342  1.70474064 54592","mean_motion":1.70474064,"eccentricity":0.0004508,"inclination_deg":55.0524,"raan_deg":218.9383,"arg_perigee_deg":291.1911,"mean_anomaly_deg":68.7342,"bstar":0,"rev_number":5459,"period_min":844.70327404173,"perigee_km":23208.831828182,"apogee_km":23235.519470066,"semimajor_km":29600.312649124,"source":"CELESTRAK","updated_at":"2026-09-20T09:00:46.496246Z"}}}